Madison, SD

12:21 PM CST on December 06, 2019 (GMT -0600)
Madison Municipal

Weather History for KMDS - October, 2019

Change the Weather History Date:

Monday, October 28, 2019

  Actual Average Record
Temperature  
Mean Temperature 26 °F -  
Max Temperature 32 °F 54 °F 73 °F (2016)
Min Temperature 19 °F 30 °F 15 °F (2017)
Degree Days  
Heating Degree Days 40    
Moisture  
Dew Point 17 °F    
Average Humidity 71    
Maximum Humidity 100    
Minimum Humidity 48    
Precipitation  
Precipitation 0.00 in - - ()
Sea Level Pressure  
Sea Level Pressure 30.09 in    
Wind  
Wind Speed 8 mph ()    
Max Wind Speed 16 mph    
Max Gust Speed 23 mph    
Visibility 10.0 miles    
Events      
Averages and records for this station are not official NWS values.
T = Trace of Precipitation, MM = Missing Value Source: Averaged Metar Reports

Daily Weather History Graph

Daily Weather History Graph

Search for Another Location

Airport or City:

Astronomy

Oct. 28, 2019 Rise Set
Actual Time 7:59 AM CDT 6:24 PM CDT
Civil Twilight 7:29 AM CDT 6:54 PM CDT
Nautical Twilight 6:55 AM CDT 7:27 PM CDT
Astronomical Twilight 6:22 AM CDT 8:01 PM CDT
Moon 8:21 AM CDT (10/28) 7:09 PM CDT (10/28)
Length of Visible Light 11h 24m
Length of Day
10h 24m
New Moon, 0% of the Moon is Illuminated
Oct 28
New Moon
Nov 4
First Quarter
Nov 12
Full
Nov 19
Last Quarter
Nov 26
New

Hourly Weather History & Observations

Time (CDT) Temp. Windchill Dew Point Humidity Pressure Visibility Wind Dir Wind Speed Gust Speed Precip Events Conditions
12:15 AM 24.8 °F 16.9 °F 21.2 °F 86% 30.16 in 10.0 mi NW 6.9 mph - N/A   Partly Cloudy
12:20 AM 24.8 °F 16.1 °F 19.4 °F 80% 30.16 in 10.0 mi NW 8.1 mph - N/A   Partly Cloudy
12:35 AM 24.8 °F 15.3 °F 19.4 °F 80% 30.15 in 10.0 mi NW 9.2 mph - N/A   Clear
12:55 AM 24.8 °F 16.9 °F 19.4 °F 80% 30.15 in 10.0 mi WNW 6.9 mph - N/A   Clear
1:00 AM 24.8 °F 16.1 °F 19.4 °F 80% 30.15 in 10.0 mi WNW 8.1 mph - N/A   Clear
1:35 AM 24.8 °F 16.1 °F 19.4 °F 80% 30.15 in 10.0 mi WNW 8.1 mph - N/A   Clear
1:40 AM 24.8 °F 16.9 °F 19.4 °F 80% 30.15 in 10.0 mi WNW 6.9 mph - N/A   Clear
1:55 AM 23.0 °F 14.7 °F 19.4 °F 86% 30.15 in 10.0 mi West 6.9 mph - N/A   Clear
2:00 AM 23.0 °F 13.9 °F 19.4 °F 86% 30.15 in 10.0 mi West 8.1 mph - N/A   Clear
2:15 AM 23.0 °F 13.9 °F 23.0 °F 100% 30.15 in 10.0 mi West 8.1 mph - N/A   Clear
2:35 AM 23.0 °F 13.9 °F 21.2 °F 93% 30.14 in 10.0 mi WNW 8.1 mph - N/A   Clear
2:40 AM 23.0 °F 13.9 °F 21.2 °F 93% 30.14 in 10.0 mi WNW 8.1 mph - N/A   Clear
2:55 AM 23.0 °F 14.7 °F 21.2 °F 93% 30.14 in 10.0 mi WNW 6.9 mph - N/A   Clear
3:15 AM 23.0 °F 14.7 °F 19.4 °F 86% 30.14 in 10.0 mi WNW 6.9 mph - N/A   Clear
3:20 AM 23.0 °F 14.7 °F 19.4 °F 86% 30.13 in 10.0 mi WNW 6.9 mph - N/A   Clear
3:35 AM 23.0 °F 13.9 °F 19.4 °F 86% 30.13 in 10.0 mi WNW 8.1 mph - N/A   Clear
3:40 AM 23.0 °F 13.9 °F 19.4 °F 86% 30.13 in 10.0 mi WNW 8.1 mph - N/A   Clear
3:55 AM 23.0 °F 14.7 °F 19.4 °F 86% 30.13 in 10.0 mi WNW 6.9 mph - N/A   Clear
4:00 AM 23.0 °F 15.8 °F 19.4 °F 86% 30.13 in 10.0 mi WNW 5.8 mph - N/A   Clear
4:15 AM 23.0 °F 15.8 °F 19.4 °F 86% 30.13 in 10.0 mi West 5.8 mph - N/A   Clear
4:35 AM 23.0 °F 15.8 °F 17.6 °F 80% 30.12 in 10.0 mi WNW 5.8 mph - N/A   Clear
4:55 AM 23.0 °F 14.7 °F 17.6 °F 80% 30.11 in 10.0 mi West 6.9 mph - N/A   Clear
5:00 AM 23.0 °F 13.9 °F 17.6 °F 80% 30.11 in 10.0 mi West 8.1 mph - N/A   Clear
5:15 AM 23.0 °F 13.9 °F 17.6 °F 80% 30.11 in 10.0 mi West 8.1 mph - N/A   Clear
5:35 AM 23.0 °F 13.9 °F 17.6 °F 80% 30.11 in 10.0 mi West 8.1 mph - N/A   Clear
5:55 AM 21.2 °F 12.6 °F 17.6 °F 86% 30.11 in 10.0 mi West 6.9 mph - N/A   Clear
6:20 AM 21.2 °F 10.9 °F 17.6 °F 86% 30.10 in 10.0 mi WNW 9.2 mph - N/A   Clear
6:35 AM 19.4 °F 9.5 °F 17.6 °F 93% 30.11 in 10.0 mi West 8.1 mph - N/A   Clear
6:40 AM 19.4 °F 9.5 °F 17.6 °F 93% 30.12 in 10.0 mi West 8.1 mph - N/A   Clear
6:55 AM 19.4 °F 10.4 °F 17.6 °F 93% 30.10 in 10.0 mi West 6.9 mph - N/A   Clear
7:00 AM 19.4 °F 9.5 °F 17.6 °F 93% 30.10 in 10.0 mi West 8.1 mph - N/A   Clear
7:15 AM 19.4 °F 9.5 °F 17.6 °F 93% 30.10 in 10.0 mi West 8.1 mph - N/A   Clear
7:20 AM 19.4 °F 8.6 °F 17.6 °F 93% 30.11 in 10.0 mi West 9.2 mph - N/A   Clear
7:35 AM 19.4 °F 10.4 °F 17.6 °F 93% 30.10 in 10.0 mi West 6.9 mph - N/A   Clear
7:40 AM 19.4 °F 10.4 °F 17.6 °F 93% 30.10 in 10.0 mi West 6.9 mph - N/A   Clear
7:55 AM 19.4 °F 11.5 °F 17.6 °F 93% 30.10 in 10.0 mi West 5.8 mph - N/A   Clear
8:00 AM 19.4 °F 10.4 °F 17.6 °F 93% 30.11 in 10.0 mi West 6.9 mph - N/A   Clear
8:15 AM 19.4 °F 10.4 °F 17.6 °F 93% 30.11 in 10.0 mi West 6.9 mph - N/A   Clear
8:20 AM 19.4 °F 10.4 °F 17.6 °F 93% 30.11 in 10.0 mi West 6.9 mph - N/A   Clear
8:35 AM 21.2 °F 12.6 °F 17.6 °F 86% 30.12 in 10.0 mi West 6.9 mph - N/A   Clear
8:55 AM 23.0 °F 13.9 °F 15.8 °F 74% 30.12 in 10.0 mi WSW 8.1 mph - N/A   Clear
9:00 AM 23.0 °F 14.7 °F 15.8 °F 74% 30.12 in 10.0 mi West 6.9 mph - N/A   Clear
9:15 AM 23.0 °F 14.7 °F 15.8 °F 74% 30.12 in 10.0 mi WSW 6.9 mph - N/A   Clear
9:20 AM 23.0 °F 14.7 °F 15.8 °F 74% 30.11 in 10.0 mi WSW 6.9 mph - N/A   Clear
9:35 AM 24.8 °F 16.1 °F 17.6 °F 74% 30.12 in 10.0 mi WSW 8.1 mph - N/A   Clear
9:40 AM 24.8 °F 16.1 °F 17.6 °F 74% 30.11 in 10.0 mi WSW 8.1 mph - N/A   Clear
9:55 AM 24.8 °F 14.6 °F 17.6 °F 74% 30.11 in 10.0 mi West 10.4 mph - N/A   Clear
10:00 AM 24.8 °F 14.6 °F 15.8 °F 69% 30.11 in 10.0 mi West 10.4 mph - N/A   Clear
10:15 AM 26.6 °F 17.5 °F 15.8 °F 64% 30.11 in 10.0 mi WSW 9.2 mph - N/A   Clear
10:40 AM 26.6 °F 16.2 °F 14.0 °F 59% 30.11 in 10.0 mi West 11.5 mph - N/A   Clear
10:55 AM 28.4 °F 19.7 °F 15.8 °F 59% 30.11 in 10.0 mi West 9.2 mph - N/A   Clear
11:00 AM 28.4 °F 18.5 °F 15.8 °F 59% 30.11 in 10.0 mi West 11.5 mph - N/A   Clear
11:15 AM 28.4 °F 19.7 °F 14.0 °F 55% 30.11 in 10.0 mi West 9.2 mph 17.3 mph N/A   Clear
11:20 AM 26.6 °F 14.7 °F 14.0 °F 59% 30.10 in 10.0 mi West 15.0 mph 19.6 mph N/A   Clear
11:35 AM 28.4 °F 18.5 °F 14.0 °F 55% 30.09 in 10.0 mi WSW 11.5 mph 17.3 mph N/A   Clear
11:40 AM 28.4 °F 18.0 °F 15.8 °F 59% 30.09 in 10.0 mi WSW 12.7 mph 17.3 mph N/A   Clear
11:55 AM 28.4 °F 17.5 °F 15.8 °F 59% 30.09 in 10.0 mi WSW 13.8 mph 23.0 mph N/A   Clear
12:15 PM 28.4 °F 18.5 °F 15.8 °F 59% 30.09 in 10.0 mi West 11.5 mph 20.7 mph N/A   Clear
12:35 PM 30.2 °F 18.9 °F 14.0 °F 51% 30.09 in 10.0 mi West 16.1 mph 21.9 mph N/A   Clear
12:40 PM 30.2 °F 19.8 °F 14.0 °F 51% 30.09 in 10.0 mi West 13.8 mph 21.9 mph N/A   Clear
12:55 PM 30.2 °F 19.8 °F 14.0 °F 51% 30.08 in 10.0 mi WSW 13.8 mph 19.6 mph N/A   Clear
1:00 PM 30.2 °F 19.3 °F 14.0 °F 51% 30.08 in 10.0 mi West 15.0 mph 19.6 mph N/A   Clear
1:15 PM 30.2 °F 19.8 °F 14.0 °F 51% 30.08 in 10.0 mi West 13.8 mph 17.3 mph N/A   Clear
1:35 PM 30.2 °F 19.8 °F 14.0 °F 51% 30.08 in 10.0 mi West 13.8 mph 19.6 mph N/A   Clear
1:40 PM 30.2 °F 18.9 °F 14.0 °F 51% 30.07 in 10.0 mi WSW 16.1 mph 23.0 mph N/A   Clear
1:55 PM 30.2 °F 20.2 °F 14.0 °F 51% 30.07 in 10.0 mi West 12.7 mph 21.9 mph N/A   Clear
2:15 PM 32.0 °F 22.1 °F 14.0 °F 48% 30.06 in 10.0 mi West 13.8 mph 20.7 mph N/A   Clear
2:35 PM 32.0 °F 22.1 °F 14.0 °F 48% 30.05 in 10.0 mi West 13.8 mph 21.9 mph N/A   Clear
2:40 PM 32.0 °F 21.2 °F 14.0 °F 48% 30.05 in 10.0 mi West 16.1 mph 21.9 mph N/A   Clear
2:55 PM 32.0 °F 21.2 °F 14.0 °F 48% 30.04 in 10.0 mi West 16.1 mph 20.7 mph N/A   Clear
3:00 PM 32.0 °F 23.0 °F 14.0 °F 48% 30.04 in 10.0 mi West 11.5 mph 20.7 mph N/A   Clear
3:15 PM 32.0 °F 23.0 °F 14.0 °F 48% 30.04 in 10.0 mi West 11.5 mph 19.6 mph N/A   Clear
3:35 PM 32.0 °F 22.5 °F 14.0 °F 48% 30.04 in 10.0 mi West 12.7 mph 18.4 mph N/A   Clear
3:40 PM 32.0 °F 23.6 °F 14.0 °F 48% 30.04 in 10.0 mi West 10.4 mph - N/A   Clear
3:55 PM 32.0 °F 22.5 °F 14.0 °F 48% 30.03 in 10.0 mi West 12.7 mph 18.4 mph N/A   Clear
4:15 PM 32.0 °F 23.0 °F 15.8 °F 51% 30.04 in 10.0 mi West 11.5 mph 21.9 mph N/A   Clear
4:35 PM 32.0 °F 24.8 °F 15.8 °F 51% 30.03 in 10.0 mi West 8.1 mph - N/A   Clear
5:15 PM 32.0 °F 23.6 °F 14.0 °F 48% 30.03 in 10.0 mi West 10.4 mph - N/A   Clear
5:20 PM 32.0 °F 24.2 °F 14.0 °F 48% 30.03 in 10.0 mi West 9.2 mph - N/A   Clear
5:35 PM 32.0 °F 24.8 °F 14.0 °F 48% 30.04 in 10.0 mi West 8.1 mph - N/A   Clear
5:40 PM 32.0 °F 24.8 °F 14.0 °F 48% 30.04 in 10.0 mi West 8.1 mph - N/A   Clear
5:55 PM 32.0 °F 24.8 °F 14.0 °F 48% 30.04 in 10.0 mi West 8.1 mph - N/A   Clear
6:15 PM 30.2 °F 24.3 °F 15.8 °F 55% 30.04 in 10.0 mi West 5.8 mph - N/A   Clear
6:20 PM 30.2 °F 24.3 °F 15.8 °F 55% 30.04 in 10.0 mi West 5.8 mph - N/A   Clear
6:35 PM 30.2 °F 24.3 °F 15.8 °F 55% 30.05 in 10.0 mi West 5.8 mph - N/A   Clear
6:55 PM 30.2 °F 26.7 °F 15.8 °F 55% 30.06 in 10.0 mi West 3.5 mph - N/A   Clear
7:15 PM 30.2 °F 25.4 °F 15.8 °F 55% 30.06 in 10.0 mi West 4.6 mph - N/A   Clear
7:20 PM 30.2 °F 26.7 °F 15.8 °F 55% 30.06 in 10.0 mi West 3.5 mph - N/A   Clear
7:35 PM 30.2 °F 26.7 °F 15.8 °F 55% 30.06 in 10.0 mi West 3.5 mph - N/A   Clear
7:55 PM 28.4 °F 24.6 °F 15.8 °F 59% 30.06 in 10.0 mi West 3.5 mph - N/A   Clear
8:15 PM 28.4 °F 24.6 °F 17.6 °F 64% 30.06 in 10.0 mi South 3.5 mph - N/A   Clear
8:20 PM 28.4 °F 24.6 °F 19.4 °F 69% 30.06 in 10.0 mi South 3.5 mph - N/A   Clear
8:35 PM 28.4 °F 24.6 °F 19.4 °F 69% 30.06 in 10.0 mi SW 3.5 mph - N/A   Clear
8:40 PM 28.4 °F 24.6 °F 21.2 °F 74% 30.07 in 10.0 mi SW 3.5 mph - N/A   Clear
8:55 PM 28.4 °F 24.6 °F 21.2 °F 74% 30.07 in 10.0 mi WSW 3.5 mph - N/A   Clear
9:15 PM 28.4 °F - 19.4 °F 69% 30.07 in 10.0 mi North - - N/A   Clear
9:40 PM 26.6 °F - 21.2 °F 80% 30.08 in 10.0 mi North - - N/A   Clear
9:55 PM 26.6 °F - 19.4 °F 74% 30.08 in 10.0 mi North - - N/A   Clear
10:00 PM 26.6 °F - 19.4 °F 74% 30.09 in 10.0 mi North - - N/A   Clear
10:15 PM 26.6 °F - 21.2 °F 80% 30.09 in 10.0 mi North - - N/A   Clear
10:20 PM 26.6 °F - 21.2 °F 80% 30.09 in 10.0 mi North - - N/A   Clear
10:35 PM 24.8 °F - 21.2 °F 86% 30.09 in 10.0 mi North - - N/A   Clear
10:40 PM 24.8 °F 19.1 °F 21.2 °F 86% 30.09 in 10.0 mi SSW 4.6 mph - N/A   Clear
10:55 PM 24.8 °F 19.1 °F 21.2 °F 86% 30.10 in 10.0 mi SW 4.6 mph - N/A   Clear
11:15 PM 24.8 °F 19.1 °F 19.4 °F 80% 30.10 in 10.0 mi SW 4.6 mph - N/A   Clear
11:20 PM 24.8 °F 19.1 °F 19.4 °F 80% 30.10 in 10.0 mi SW 4.6 mph - N/A   Clear
11:35 PM 24.8 °F 19.1 °F 19.4 °F 80% 30.11 in 10.0 mi SW 4.6 mph - N/A   Clear
11:40 PM 24.8 °F 19.1 °F 19.4 °F 80% 30.11 in 10.0 mi SW 4.6 mph - N/A   Clear
11:55 PM 24.8 °F 19.1 °F 19.4 °F 80% 30.11 in 10.0 mi SW 4.6 mph - N/A   Clear